Year,Month,Day,Hour,Minute,Value (Times are PST for temperature in C)
2010,10,14,00,00,7.30
2010,10,14,00,01,7.20
2010,10,14,00,02,7.30
2010,10,14,00,03,7.40
2010,10,14,00,04,7.50
2010,10,14,00,05,7.60
2010,10,14,00,06,7.80
2010,10,14,00,07,7.80
2010,10,14,00,08,7.90
2010,10,14,00,09,7.90
2010,10,14,00,10,8.00
2010,10,14,00,11,8.10
2010,10,14,00,12,8.20
2010,10,14,00,13,8.20
2010,10,14,00,14,8.20
2010,10,14,00,15,8.20
2010,10,14,00,16,8.10
2010,10,14,00,17,8.10
2010,10,14,00,18,8.10
2010,10,14,00,19,8.20
2010,10,14,00,20,8.30
2010,10,14,00,21,8.30
2010,10,14,00,22,8.40
2010,10,14,00,23,8.40
2010,10,14,00,24,8.40
2010,10,14,00,25,8.30
2010,10,14,00,26,8.30
2010,10,14,00,27,8.30
2010,10,14,00,28,8.40
2010,10,14,00,29,8.40
2010,10,14,00,30,8.40
2010,10,14,00,31,8.40
2010,10,14,00,32,8.40
2010,10,14,00,33,8.40
2010,10,14,00,34,8.50
2010,10,14,00,35,8.50
2010,10,14,00,36,8.50
2010,10,14,00,37,8.60
2010,10,14,00,38,8.60
2010,10,14,00,39,8.60
2010,10,14,00,40,8.60
2010,10,14,00,41,8.60
2010,10,14,00,42,8.60
2010,10,14,00,43,8.50
2010,10,14,00,44,8.50
2010,10,14,00,45,8.50
2010,10,14,00,46,8.40
2010,10,14,00,47,8.30
2010,10,14,00,48,8.20
2010,10,14,00,49,8.20
2010,10,14,00,50,8.10
2010,10,14,00,51,8.10
2010,10,14,00,52,8.10
2010,10,14,00,53,8.10
2010,10,14,00,54,8.10
2010,10,14,00,55,8.10
2010,10,14,00,56,8.10
2010,10,14,00,57,8.10
2010,10,14,00,58,8.10
2010,10,14,00,59,8.10
2010,10,14,01,00,8.10
2010,10,14,01,01,8.00
2010,10,14,01,02,7.90
2010,10,14,01,03,7.90
2010,10,14,01,04,7.90
2010,10,14,01,05,7.80
2010,10,14,01,06,7.80
2010,10,14,01,07,7.70
2010,10,14,01,08,7.70
2010,10,14,01,09,7.60
2010,10,14,01,10,7.60
2010,10,14,01,11,7.60
2010,10,14,01,12,7.50
2010,10,14,01,13,7.50
2010,10,14,01,14,7.60
2010,10,14,01,15,7.70
2010,10,14,01,16,7.80
2010,10,14,01,17,7.90
2010,10,14,01,18,8.00
2010,10,14,01,19,8.10
2010,10,14,01,20,8.20
2010,10,14,01,21,8.30
2010,10,14,01,22,8.30
2010,10,14,01,23,8.40
2010,10,14,01,24,8.40
2010,10,14,01,25,8.50
2010,10,14,01,26,8.60
2010,10,14,01,27,8.60
2010,10,14,01,28,8.60
2010,10,14,01,29,8.60
2010,10,14,01,30,8.60
2010,10,14,01,31,8.60
2010,10,14,01,32,8.60
2010,10,14,01,33,8.60
2010,10,14,01,34,8.60
2010,10,14,01,35,8.60
2010,10,14,01,36,8.50
2010,10,14,01,37,8.40
2010,10,14,01,38,8.40
2010,10,14,01,39,8.40
2010,10,14,01,40,8.30
2010,10,14,01,41,8.30
2010,10,14,01,42,8.30
2010,10,14,01,43,8.30
2010,10,14,01,44,8.30
2010,10,14,01,45,8.20
2010,10,14,01,46,8.20
2010,10,14,01,47,8.20
2010,10,14,01,48,8.20
2010,10,14,01,49,8.20
2010,10,14,01,50,8.10
2010,10,14,01,51,8.10
2010,10,14,01,52,8.00
2010,10,14,01,53,8.00
2010,10,14,01,54,7.90
2010,10,14,01,55,7.90
2010,10,14,01,56,7.90
2010,10,14,01,57,7.90
2010,10,14,01,58,7.90
2010,10,14,01,59,7.90
2010,10,14,02,00,7.90
2010,10,14,02,01,7.90
2010,10,14,02,02,8.00
2010,10,14,02,03,8.00
2010,10,14,02,04,8.10
2010,10,14,02,05,8.10
2010,10,14,02,06,8.10
2010,10,14,02,07,8.20
2010,10,14,02,08,8.20
2010,10,14,02,09,8.20
2010,10,14,02,10,8.20
2010,10,14,02,11,8.10
2010,10,14,02,12,8.10
2010,10,14,02,13,8.10
2010,10,14,02,14,8.20
2010,10,14,02,15,8.20
2010,10,14,02,16,8.20
2010,10,14,02,17,8.20
2010,10,14,02,18,8.20
2010,10,14,02,19,8.20
2010,10,14,02,20,8.30
2010,10,14,02,21,8.30
2010,10,14,02,22,8.20
2010,10,14,02,23,8.20
2010,10,14,02,24,8.20
2010,10,14,02,25,8.20
2010,10,14,02,26,8.20
2010,10,14,02,27,8.20
2010,10,14,02,28,8.20
2010,10,14,02,29,8.20
2010,10,14,02,30,8.10
2010,10,14,02,31,8.10
2010,10,14,02,32,8.00
2010,10,14,02,33,8.00
2010,10,14,02,34,8.00
2010,10,14,02,35,8.00
2010,10,14,02,36,8.00
2010,10,14,02,37,8.00
2010,10,14,02,38,8.10
2010,10,14,02,39,8.00
2010,10,14,02,40,8.00
2010,10,14,02,41,8.00
2010,10,14,02,42,8.00
2010,10,14,02,43,8.10
2010,10,14,02,44,8.10
2010,10,14,02,45,8.10
2010,10,14,02,46,8.10
2010,10,14,02,47,8.10
2010,10,14,02,48,8.10
2010,10,14,02,49,8.10
2010,10,14,02,50,8.10
2010,10,14,02,51,8.10
2010,10,14,02,52,8.10
2010,10,14,02,53,8.10
2010,10,14,02,54,8.10
2010,10,14,02,55,8.00
2010,10,14,02,56,8.00
2010,10,14,02,57,7.90
2010,10,14,02,58,7.90
2010,10,14,02,59,7.80
2010,10,14,03,00,7.70
2010,10,14,03,01,7.70
2010,10,14,03,02,7.70
2010,10,14,03,03,7.60
2010,10,14,03,04,7.60
2010,10,14,03,05,7.60
2010,10,14,03,06,7.60
2010,10,14,03,07,7.60
2010,10,14,03,08,7.70
2010,10,14,03,09,7.70
2010,10,14,03,10,7.60
2010,10,14,03,11,7.60
2010,10,14,03,12,7.50
2010,10,14,03,13,7.50
2010,10,14,03,14,7.40
2010,10,14,03,15,7.40
2010,10,14,03,16,7.50
2010,10,14,03,17,7.50
2010,10,14,03,18,7.60
2010,10,14,03,19,7.50
2010,10,14,03,20,7.50
2010,10,14,03,21,7.40
2010,10,14,03,22,7.40
2010,10,14,03,23,7.50
2010,10,14,03,24,7.50
2010,10,14,03,25,7.60
2010,10,14,03,26,7.60
2010,10,14,03,27,7.60
2010,10,14,03,28,7.60
2010,10,14,03,29,7.60
2010,10,14,03,30,7.60
2010,10,14,03,31,7.60
2010,10,14,03,32,7.60
2010,10,14,03,33,7.60
2010,10,14,03,34,7.60
2010,10,14,03,35,7.50
2010,10,14,03,36,7.50
2010,10,14,03,37,7.40
2010,10,14,03,38,7.40
2010,10,14,03,39,7.40
2010,10,14,03,40,7.30
2010,10,14,03,41,7.20
2010,10,14,03,42,7.10
2010,10,14,03,43,7.00
2010,10,14,03,44,6.90
2010,10,14,03,45,6.80
2010,10,14,03,46,6.70
2010,10,14,03,47,6.70
2010,10,14,03,48,6.70
2010,10,14,03,49,6.70
2010,10,14,03,50,6.70
2010,10,14,03,51,6.70
2010,10,14,03,52,6.80
2010,10,14,03,53,6.80
2010,10,14,03,54,6.80
2010,10,14,03,55,6.90
2010,10,14,03,56,7.00
2010,10,14,03,57,7.10
2010,10,14,03,58,7.20
2010,10,14,03,59,7.20
2010,10,14,04,00,7.30
2010,10,14,04,01,7.20
2010,10,14,04,02,7.20
2010,10,14,04,03,7.20
2010,10,14,04,04,7.20
2010,10,14,04,05,7.20
2010,10,14,04,06,7.10
2010,10,14,04,07,7.00
2010,10,14,04,08,6.90
2010,10,14,04,09,6.90
2010,10,14,04,10,6.80
2010,10,14,04,11,6.70
2010,10,14,04,12,6.60
2010,10,14,04,13,6.60
2010,10,14,04,14,6.60
2010,10,14,04,15,6.50
2010,10,14,04,16,6.40
2010,10,14,04,17,6.40
2010,10,14,04,18,6.40
2010,10,14,04,19,6.40
2010,10,14,04,20,6.30
2010,10,14,04,21,6.30
2010,10,14,04,22,6.30
2010,10,14,04,23,6.30
2010,10,14,04,24,6.30
2010,10,14,04,25,6.30
2010,10,14,04,26,6.30
2010,10,14,04,27,6.20
2010,10,14,04,28,6.20
2010,10,14,04,29,6.20
2010,10,14,04,30,6.30
2010,10,14,04,31,6.30
2010,10,14,04,32,6.30
2010,10,14,04,33,6.20
2010,10,14,04,34,6.20
2010,10,14,04,35,6.20
2010,10,14,04,36,6.20
2010,10,14,04,37,6.10
2010,10,14,04,38,6.10
2010,10,14,04,39,6.10
2010,10,14,04,40,6.10
2010,10,14,04,41,6.00
2010,10,14,04,42,6.00
2010,10,14,04,43,6.20
2010,10,14,04,44,6.50
2010,10,14,04,45,6.70
2010,10,14,04,46,6.80
2010,10,14,04,47,7.00
2010,10,14,04,48,7.10
2010,10,14,04,49,7.20
2010,10,14,04,50,7.40
2010,10,14,04,51,7.40
2010,10,14,12,27,12.00
2010,10,14,12,28,12.00
2010,10,14,12,29,12.10
2010,10,14,12,30,12.10
2010,10,14,12,31,12.10
2010,10,14,12,32,12.10
2010,10,14,12,33,12.10
2010,10,14,12,34,12.10
2010,10,14,12,35,12.10
2010,10,14,12,36,12.10
2010,10,14,12,37,12.10
2010,10,14,12,38,12.10
2010,10,14,12,39,12.10
2010,10,14,12,40,12.10
2010,10,14,12,41,12.10
2010,10,14,12,42,12.10
2010,10,14,12,43,12.10
2010,10,14,12,44,12.10
2010,10,14,12,45,12.10
2010,10,14,12,46,12.10
2010,10,14,12,47,12.10
2010,10,14,12,48,12.10
2010,10,14,12,49,12.10
2010,10,14,12,50,12.10
2010,10,14,12,51,12.10
2010,10,14,12,52,12.10
2010,10,14,12,53,12.20
2010,10,14,12,54,12.20
2010,10,14,12,55,12.20
2010,10,14,12,56,12.20
2010,10,14,12,57,12.20
2010,10,14,12,58,12.20
2010,10,14,12,59,12.30
2010,10,14,13,00,12.30
2010,10,14,13,01,12.20
2010,10,14,13,02,12.20
2010,10,14,13,03,12.30
2010,10,14,13,04,12.30
2010,10,14,13,05,12.30
2010,10,14,13,06,12.30
2010,10,14,13,07,12.30
2010,10,14,13,08,12.30
2010,10,14,13,09,12.30
2010,10,14,13,10,12.30
2010,10,14,13,11,12.30
2010,10,14,13,12,12.30
2010,10,14,13,13,12.30
2010,10,14,13,14,12.30
2010,10,14,13,15,12.30
2010,10,14,13,16,12.30
2010,10,14,13,17,12.20
2010,10,14,13,18,12.20
2010,10,14,13,19,12.20
2010,10,14,13,20,12.20
2010,10,14,13,21,12.20
2010,10,14,13,22,12.20
2010,10,14,13,23,12.20
2010,10,14,13,24,12.20
2010,10,14,13,25,12.20
2010,10,14,13,26,12.30
2010,10,14,13,27,12.30
2010,10,14,13,28,12.30
2010,10,14,13,29,12.30
2010,10,14,13,30,12.30
2010,10,14,13,31,12.40
2010,10,14,13,32,12.40
2010,10,14,13,33,12.40
2010,10,14,13,34,12.50
2010,10,14,13,35,12.50
2010,10,14,13,36,12.50
2010,10,14,13,37,12.50
2010,10,14,13,38,12.50
2010,10,14,13,39,12.50
2010,10,14,13,40,12.50
2010,10,14,13,41,12.50
2010,10,14,13,42,12.50
2010,10,14,13,43,12.50
2010,10,14,13,44,12.40
2010,10,14,13,45,12.40
2010,10,14,13,46,12.40
2010,10,14,13,47,12.40
2010,10,14,13,48,12.40
2010,10,14,13,49,12.40
2010,10,14,13,50,12.40
2010,10,14,13,51,12.40
2010,10,14,13,52,12.40
2010,10,14,13,53,12.40
2010,10,14,13,54,12.40
2010,10,14,13,55,12.40
2010,10,14,13,56,12.40
2010,10,14,13,57,12.40
2010,10,14,13,58,12.40
2010,10,14,13,59,12.40
2010,10,14,14,00,12.40
2010,10,14,14,01,12.40
2010,10,14,14,02,12.40
2010,10,14,14,03,12.40
2010,10,14,14,04,12.40
2010,10,14,14,05,12.40
2010,10,14,14,06,12.40
2010,10,14,14,07,12.40
2010,10,14,14,08,12.40
2010,10,14,14,09,12.40
2010,10,14,14,10,12.30
2010,10,14,14,11,12.30
2010,10,14,14,12,12.30
2010,10,14,14,13,12.30
2010,10,14,14,14,12.30
2010,10,14,14,15,12.30
2010,10,14,14,16,12.20
2010,10,14,14,17,12.20
2010,10,14,14,18,12.20
2010,10,14,14,19,12.20
2010,10,14,14,20,12.20
2010,10,14,14,21,12.20
2010,10,14,14,22,12.20
2010,10,14,14,23,12.20
2010,10,14,14,24,12.10
2010,10,14,14,25,12.10
2010,10,14,14,26,12.10
2010,10,14,14,27,12.10
2010,10,14,14,28,12.10
2010,10,14,14,29,12.10
2010,10,14,14,30,12.00
2010,10,14,14,31,12.00
2010,10,14,14,32,12.00
2010,10,14,14,33,12.00
2010,10,14,14,34,12.00
2010,10,14,14,35,11.90
2010,10,14,14,36,11.90
2010,10,14,14,37,11.90
2010,10,14,14,38,11.90
2010,10,14,14,39,11.90
2010,10,14,14,40,12.00
2010,10,14,14,41,12.00
2010,10,14,14,42,12.00
2010,10,14,14,43,12.00
2010,10,14,14,44,12.00
2010,10,14,14,45,12.00
2010,10,14,14,46,12.10
2010,10,14,14,47,12.10
2010,10,14,14,48,12.10
2010,10,14,14,49,12.10
2010,10,14,14,50,12.10
2010,10,14,14,51,12.10
2010,10,14,14,52,12.10
2010,10,14,14,53,12.10
2010,10,14,14,54,12.10
2010,10,14,14,55,12.10
2010,10,14,14,56,12.10
2010,10,14,14,57,12.10
2010,10,14,14,58,12.10
2010,10,14,14,59,12.10
2010,10,14,15,00,12.10
2010,10,14,15,01,12.10
2010,10,14,15,02,12.10
2010,10,14,15,03,12.10
2010,10,14,15,04,12.10
2010,10,14,15,05,12.10
2010,10,14,15,06,12.10
2010,10,14,15,07,12.10
2010,10,14,15,08,12.20
2010,10,14,15,09,12.20
2010,10,14,15,10,12.20
2010,10,14,15,11,12.20
2010,10,14,15,12,12.20
2010,10,14,15,13,12.20
2010,10,14,15,14,12.20
2010,10,14,15,15,12.20
2010,10,14,15,16,12.20
2010,10,14,15,17,12.20
2010,10,14,15,18,12.20
2010,10,14,15,19,12.20
2010,10,14,15,20,12.20
2010,10,14,15,21,12.20
2010,10,14,15,22,12.20
2010,10,14,15,23,12.20
2010,10,14,15,24,12.20
2010,10,14,15,25,12.20
2010,10,14,15,26,12.20
2010,10,14,15,27,12.20
2010,10,14,15,28,12.20
2010,10,14,15,29,12.20
2010,10,14,15,30,12.20
2010,10,14,15,31,12.20
2010,10,14,15,32,12.20
2010,10,14,15,33,12.20
2010,10,14,15,34,12.20
2010,10,14,15,35,12.30
2010,10,14,15,36,12.20
2010,10,14,15,37,12.20
2010,10,14,15,38,12.20
2010,10,14,15,39,12.30
2010,10,14,15,40,12.30
2010,10,14,15,41,12.30
2010,10,14,15,42,12.20
2010,10,14,15,43,12.20
2010,10,14,15,44,12.20
2010,10,14,15,45,12.20
2010,10,14,15,46,12.20
2010,10,14,15,47,12.30
2010,10,14,15,48,12.30
2010,10,14,15,49,12.30
2010,10,14,15,50,12.30
2010,10,14,15,51,12.30
2010,10,14,15,52,12.30
2010,10,14,15,53,12.30
2010,10,14,15,54,12.30
2010,10,14,15,55,12.30
2010,10,14,15,56,12.40
2010,10,14,15,57,12.40
2010,10,14,15,58,12.40
2010,10,14,15,59,12.50
2010,10,14,16,00,12.50
2010,10,14,16,01,12.60
2010,10,14,16,02,12.60
2010,10,14,16,03,12.60
2010,10,14,16,04,12.70
2010,10,14,16,05,12.70
2010,10,14,16,06,12.70
2010,10,14,16,07,12.70
2010,10,14,16,08,12.70
2010,10,14,16,09,12.70
2010,10,14,16,10,12.70
2010,10,14,16,11,12.80
2010,10,14,16,12,12.80
2010,10,14,16,13,12.70
2010,10,14,16,14,12.70
2010,10,14,16,15,12.70
2010,10,14,16,16,12.70
2010,10,14,16,17,12.70
2010,10,14,16,18,12.70
2010,10,14,16,19,12.70
2010,10,14,16,20,12.60
2010,10,14,16,21,12.60
2010,10,14,16,22,12.60
2010,10,14,16,23,12.50
2010,10,14,16,24,12.50
2010,10,14,16,25,12.50
2010,10,14,16,26,12.40
2010,10,14,16,27,12.40
2010,10,14,16,28,12.40
2010,10,14,16,29,12.40
2010,10,14,16,30,12.30
2010,10,14,16,31,12.30
2010,10,14,16,32,12.30
2010,10,14,16,33,12.30
2010,10,14,16,34,12.30
2010,10,14,16,35,12.30
2010,10,14,16,36,12.30
2010,10,14,16,37,12.30
2010,10,14,16,38,12.30
2010,10,14,16,39,12.30
2010,10,14,16,40,12.20
2010,10,14,16,41,12.20
2010,10,14,16,42,12.20
2010,10,14,16,43,12.20
2010,10,14,16,44,12.10
2010,10,14,16,45,12.10
2010,10,14,16,46,12.10
2010,10,14,16,47,12.10
2010,10,14,16,48,12.10
2010,10,14,16,49,12.10
2010,10,14,16,50,12.10
2010,10,14,16,51,12.20
2010,10,14,16,52,12.20
2010,10,14,16,53,12.10
2010,10,14,16,54,12.20
2010,10,14,16,55,12.20
2010,10,14,16,56,12.10
2010,10,14,16,57,12.10
2010,10,14,16,58,12.10
2010,10,14,16,59,12.20
2010,10,14,17,00,12.10
2010,10,14,17,01,12.10
2010,10,14,17,02,12.10
2010,10,14,17,03,12.10
2010,10,14,17,04,12.10
2010,10,14,17,05,12.10
2010,10,14,17,06,12.10
2010,10,14,17,07,12.10
2010,10,14,17,08,12.10
2010,10,14,17,09,12.10
2010,10,14,17,10,12.00
2010,10,14,17,11,12.00
2010,10,14,17,12,12.00
2010,10,14,17,13,12.00
2010,10,14,17,14,12.00
2010,10,14,17,15,12.00
2010,10,14,17,16,12.00
2010,10,14,17,17,12.00
2010,10,14,17,18,11.90
2010,10,14,17,19,11.90
2010,10,14,17,20,11.90
2010,10,14,17,21,11.90
2010,10,14,17,22,11.90
2010,10,14,17,23,11.90
2010,10,14,17,24,12.00
2010,10,14,17,25,11.90
2010,10,14,17,26,11.90
2010,10,14,17,27,12.00
2010,10,14,17,28,12.00
2010,10,14,17,29,12.00
2010,10,14,17,30,12.00
2010,10,14,17,31,12.00
2010,10,14,17,32,12.00
2010,10,14,17,33,12.00
2010,10,14,17,34,12.00
2010,10,14,17,35,11.90
2010,10,14,17,36,11.90
2010,10,14,17,37,11.90
2010,10,14,17,38,11.90
2010,10,14,17,39,11.90
2010,10,14,17,40,11.90
2010,10,14,17,41,11.90
2010,10,14,17,42,11.90
2010,10,14,17,43,11.90
2010,10,14,17,44,11.80
2010,10,14,17,45,11.80
2010,10,14,17,46,11.80
2010,10,14,17,47,11.70
2010,10,14,17,48,11.70
2010,10,14,17,49,11.70
2010,10,14,17,50,11.70
2010,10,14,17,51,11.60
2010,10,14,17,52,11.60
2010,10,14,17,53,11.60
2010,10,14,17,54,11.60
2010,10,14,17,55,11.60
2010,10,14,17,56,11.60
2010,10,14,17,57,11.60
2010,10,14,17,58,11.60
2010,10,14,17,59,11.60
2010,10,14,18,00,11.60
2010,10,14,18,01,11.60
2010,10,14,18,02,11.60
2010,10,14,18,03,11.60
2010,10,14,18,04,11.60
2010,10,14,18,05,11.60
2010,10,14,18,06,11.60
2010,10,14,18,07,11.60
2010,10,14,18,08,11.60
2010,10,14,18,09,11.60
2010,10,14,18,10,11.60
2010,10,14,18,11,11.60
2010,10,14,18,12,11.60
2010,10,14,18,13,11.60
2010,10,14,18,14,11.60
2010,10,14,18,15,11.60
2010,10,14,18,16,11.60
2010,10,14,18,17,11.60
2010,10,14,18,18,11.60
2010,10,14,18,19,11.60
2010,10,14,18,20,11.60
2010,10,14,18,21,11.60
2010,10,14,18,22,11.50
2010,10,14,18,23,11.50
2010,10,14,18,24,11.50
2010,10,14,18,25,11.50
2010,10,14,18,26,11.50
2010,10,14,18,27,11.40
2010,10,14,18,28,11.40
2010,10,14,18,29,11.40
2010,10,14,18,30,11.40
2010,10,14,18,31,11.40
2010,10,14,18,32,11.40
2010,10,14,18,33,11.40
2010,10,14,18,34,11.40
2010,10,14,18,35,11.40
2010,10,14,18,36,11.30
2010,10,14,18,37,11.30
2010,10,14,18,38,11.30
2010,10,14,18,39,11.30
2010,10,14,18,40,11.30
2010,10,14,18,41,11.30
2010,10,14,18,42,11.30
2010,10,14,18,43,11.20
2010,10,14,18,44,11.20
2010,10,14,18,45,11.20
2010,10,14,18,46,11.20
2010,10,14,18,47,11.20
2010,10,14,18,48,11.20
2010,10,14,18,49,11.20
2010,10,14,18,50,11.20
2010,10,14,18,51,11.20
2010,10,14,18,52,11.20
2010,10,14,18,53,11.20
2010,10,14,18,54,11.20
2010,10,14,18,55,11.20
2010,10,14,18,56,11.20
2010,10,14,18,57,11.20
2010,10,14,18,58,11.20
2010,10,14,18,59,11.20
2010,10,14,19,00,11.20
2010,10,14,19,01,11.20
2010,10,14,19,02,11.10
2010,10,14,19,03,11.10
2010,10,14,19,04,11.10
2010,10,14,19,05,11.10
2010,10,14,19,06,11.10
2010,10,14,19,07,11.10
2010,10,14,19,08,11.10
2010,10,14,19,09,11.10
2010,10,14,19,10,11.10
2010,10,14,19,11,11.10
2010,10,14,19,12,11.10
2010,10,14,19,13,11.10
2010,10,14,19,14,11.10
2010,10,14,19,15,11.10
2010,10,14,19,16,11.10
2010,10,14,19,17,11.10
2010,10,14,19,18,11.10
2010,10,14,19,19,11.10
2010,10,14,19,20,11.10
2010,10,14,19,21,11.10
2010,10,14,19,22,11.10
2010,10,14,19,23,11.10
2010,10,14,19,24,11.10
2010,10,14,19,25,11.00
2010,10,14,19,26,11.00
2010,10,14,19,27,11.00
2010,10,14,19,28,11.00
2010,10,14,19,29,11.00
2010,10,14,19,30,10.90
2010,10,14,19,31,10.90
2010,10,14,19,32,11.00
2010,10,14,19,33,11.00
2010,10,14,19,34,11.00
2010,10,14,19,35,11.00
2010,10,14,19,36,11.00
2010,10,14,19,37,11.00
2010,10,14,19,38,10.90
2010,10,14,19,39,10.90
2010,10,14,19,40,10.90
2010,10,14,19,41,10.90
2010,10,14,19,42,10.80
2010,10,14,19,43,10.80
2010,10,14,19,44,10.80
2010,10,14,19,45,10.80
2010,10,14,19,46,10.80
2010,10,14,19,47,10.80
2010,10,14,19,48,10.80
2010,10,14,19,49,10.80
2010,10,14,19,50,10.80
2010,10,14,19,51,10.80
2010,10,14,19,52,10.80
2010,10,14,19,53,10.80
2010,10,14,19,54,10.80
2010,10,14,19,55,10.70
2010,10,14,19,56,10.70
2010,10,14,19,57,10.70
2010,10,14,19,58,10.70
2010,10,14,19,59,10.70
2010,10,14,20,00,10.70
2010,10,14,20,01,10.70
2010,10,14,20,02,10.70
2010,10,14,20,03,10.70
2010,10,14,20,04,10.70
2010,10,14,20,05,10.70
2010,10,14,20,06,10.70
2010,10,14,20,07,10.80
2010,10,14,20,08,10.80
2010,10,14,20,09,10.80
2010,10,14,20,10,10.80
2010,10,14,20,11,10.80
2010,10,14,20,12,10.80
2010,10,14,20,13,10.80
2010,10,14,20,14,10.80
2010,10,14,20,15,10.80
2010,10,14,20,16,10.80
2010,10,14,20,17,10.70
2010,10,14,20,18,10.70
2010,10,14,20,19,10.70
2010,10,14,20,20,10.80
2010,10,14,20,21,10.80
2010,10,14,20,22,10.80
2010,10,14,20,23,10.80
2010,10,14,20,24,10.80
2010,10,14,20,25,10.80
2010,10,14,20,26,10.70
2010,10,14,20,27,10.80
2010,10,14,20,28,10.80
2010,10,14,20,29,10.80
2010,10,14,20,30,10.80
2010,10,14,20,31,10.80
2010,10,14,20,32,10.80
2010,10,14,20,33,10.80
2010,10,14,20,34,10.70
2010,10,14,20,35,10.70
2010,10,14,20,36,10.70
2010,10,14,20,37,10.70
2010,10,14,20,38,10.70
2010,10,14,20,39,10.70
2010,10,14,20,40,10.70
2010,10,14,20,41,10.70
2010,10,14,20,42,10.70
2010,10,14,20,43,10.70
2010,10,14,20,44,10.70
2010,10,14,20,45,10.70
2010,10,14,20,46,10.70
2010,10,14,20,47,10.70
2010,10,14,20,48,10.60
2010,10,14,20,49,10.60
2010,10,14,20,50,10.60
2010,10,14,20,51,10.60
2010,10,14,20,52,10.60
2010,10,14,20,53,10.60
2010,10,14,20,54,10.60
2010,10,14,20,55,10.60
2010,10,14,20,56,10.60
2010,10,14,20,57,10.60
2010,10,14,20,58,10.60
2010,10,14,20,59,10.60
2010,10,14,21,00,10.60
2010,10,14,21,01,10.60
2010,10,14,21,02,10.60
2010,10,14,21,03,10.60
2010,10,14,21,04,10.70
2010,10,14,21,05,10.70
2010,10,14,21,06,10.70
2010,10,14,21,07,10.70
2010,10,14,21,08,10.80
2010,10,14,21,09,10.80
2010,10,14,21,10,10.80
2010,10,14,21,11,10.70
2010,10,14,21,12,10.70
2010,10,14,21,13,10.70
2010,10,14,21,14,10.70
2010,10,14,21,15,10.70
2010,10,14,21,16,10.60
2010,10,14,21,17,10.70
2010,10,14,21,18,10.70
2010,10,14,21,19,10.70
2010,10,14,21,20,10.70
2010,10,14,21,21,10.70
2010,10,14,21,22,10.70
2010,10,14,21,23,10.70
2010,10,14,21,24,10.60
2010,10,14,21,25,10.60
2010,10,14,21,26,10.60
2010,10,14,21,27,10.60
2010,10,14,21,28,10.50
2010,10,14,21,29,10.50
2010,10,14,21,30,10.40
2010,10,14,21,31,10.40
2010,10,14,21,32,10.40
2010,10,14,21,33,10.40
2010,10,14,21,34,10.30
2010,10,14,21,35,10.30
2010,10,14,21,36,10.30
2010,10,14,21,37,10.30
2010,10,14,21,38,10.30
2010,10,14,21,39,10.20
2010,10,14,21,40,10.20
2010,10,14,21,41,10.20
2010,10,14,21,42,10.20
2010,10,14,21,43,10.10
2010,10,14,21,44,10.10
2010,10,14,21,45,10.00
2010,10,14,21,46,10.00
2010,10,14,21,47,9.90
2010,10,14,21,48,9.90
2010,10,14,21,49,9.90
2010,10,14,21,50,9.80
2010,10,14,21,51,9.80
2010,10,14,21,52,9.80
2010,10,14,21,53,9.80
2010,10,14,21,54,9.80
2010,10,14,21,55,9.80
2010,10,14,21,56,9.70
2010,10,14,21,57,9.70
2010,10,14,21,58,9.70
2010,10,14,21,59,9.70
2010,10,14,22,00,9.70
2010,10,14,22,01,9.60
2010,10,14,22,02,9.60
2010,10,14,22,03,9.60
2010,10,14,22,04,9.60
2010,10,14,22,05,9.60
2010,10,14,22,06,9.60
2010,10,14,22,07,9.60
2010,10,14,22,08,9.50
2010,10,14,22,09,9.50
2010,10,14,22,10,9.50
2010,10,14,22,11,9.50
2010,10,14,22,12,9.50
2010,10,14,22,13,9.50
2010,10,14,22,14,9.50
2010,10,14,22,15,9.50
2010,10,14,22,16,9.50
2010,10,14,22,17,9.50
2010,10,14,22,18,9.50
2010,10,14,22,19,9.50
2010,10,14,22,20,9.60
2010,10,14,22,21,9.60
2010,10,14,22,22,9.60
2010,10,14,22,23,9.60
2010,10,14,22,24,9.60
2010,10,14,22,25,9.50
2010,10,14,22,26,9.50
2010,10,14,22,27,9.50
2010,10,14,22,28,9.50
2010,10,14,22,29,9.50
2010,10,14,22,30,9.50
2010,10,14,22,31,9.50
2010,10,14,22,32,9.50
2010,10,14,22,33,9.50
2010,10,14,22,34,9.40
2010,10,14,22,35,9.40
2010,10,14,22,36,9.40
2010,10,14,22,37,9.40
2010,10,14,22,38,9.40
2010,10,14,22,39,9.40
2010,10,14,22,40,9.40
2010,10,14,22,41,9.40
2010,10,14,22,42,9.50
2010,10,14,22,43,9.50
2010,10,14,22,44,9.50
2010,10,14,22,45,9.50
2010,10,14,22,46,9.60
2010,10,14,22,47,9.60
2010,10,14,22,48,9.60
2010,10,14,22,49,9.60
2010,10,14,22,50,9.60
2010,10,14,22,51,9.60
2010,10,14,22,52,9.60
2010,10,14,22,53,9.60
2010,10,14,22,54,9.60
2010,10,14,22,55,9.60
2010,10,14,22,56,9.60
2010,10,14,22,57,9.60
2010,10,14,22,58,9.60
2010,10,14,22,59,9.60
2010,10,14,23,00,9.60
2010,10,14,23,01,9.60
2010,10,14,23,02,9.60
2010,10,14,23,03,9.60
2010,10,14,23,04,9.60
2010,10,14,23,05,9.60
2010,10,14,23,06,9.60
2010,10,14,23,07,9.60
2010,10,14,23,08,9.60
2010,10,14,23,09,9.60
2010,10,14,23,10,9.50
2010,10,14,23,11,9.50
2010,10,14,23,12,9.50
2010,10,14,23,13,9.50
2010,10,14,23,14,9.50
2010,10,14,23,15,9.60
2010,10,14,23,16,9.60
2010,10,14,23,17,9.60
2010,10,14,23,18,9.60
2010,10,14,23,19,9.60
2010,10,14,23,20,9.60
2010,10,14,23,21,9.60
2010,10,14,23,22,9.60
2010,10,14,23,23,9.60
2010,10,14,23,24,9.70
2010,10,14,23,25,9.60
2010,10,14,23,26,9.60
2010,10,14,23,27,9.70
2010,10,14,23,28,9.60
2010,10,14,23,29,9.60
2010,10,14,23,30,9.60
2010,10,14,23,31,9.60
2010,10,14,23,32,9.60
2010,10,14,23,33,9.60
2010,10,14,23,34,9.60
2010,10,14,23,35,9.60
2010,10,14,23,36,9.60
2010,10,14,23,37,9.60
2010,10,14,23,38,9.60
2010,10,14,23,39,9.60
2010,10,14,23,40,9.60
2010,10,14,23,41,9.60
2010,10,14,23,42,9.70
2010,10,14,23,43,9.60
2010,10,14,23,44,9.70
2010,10,14,23,45,9.60
2010,10,14,23,46,9.60
2010,10,14,23,47,9.60
2010,10,14,23,48,9.60
2010,10,14,23,49,9.60
2010,10,14,23,50,9.60
2010,10,14,23,51,9.60
2010,10,14,23,52,9.60
2010,10,14,23,53,9.60
2010,10,14,23,54,9.60
2010,10,14,23,55,9.60
2010,10,14,23,56,9.60
2010,10,14,23,57,9.60
2010,10,14,23,58,9.60
2010,10,14,23,59,9.60
